Location: N�rnberg
(49.4489°N, 11.0797°E)
Time: 16:59:02
(UTC+01:00)

ISS - Pass Details

Date: 22 March 2017
Orbit: 399 x 409 km, 51.6° (Epoch: 25 March)

Event Time Altitude Azimuth Distance (km) Brightness Sun altitude
Exits shadow 03:47:02 18° 124° (SE) 1,083 -1.5 -23.5°
Drops below altitude 10° 03:48:01 10° 121° (ESE) 1,471 -0.7 -23.4°
Sets 03:50:06 0° 119° (ESE) 2,330 0.4 -23.1°
